Weather History for Jacksonville, FL

Change the Weather History Date:

Friday, July 5, 2013

  Actual Average Record
Temperature  
Mean Temperature 81 °F 82 °F  
Max Temperature 90 °F 92 °F 100 °F (1877)
Min Temperature 71 °F 72 °F 66 °F (2000)
Degree Days  
Heating Degree Days 0 0  
Month to date heating degree days 0 0  
Since 1 June heating degree days 0 0  
Since 1 July heating degree days 0 0  
Cooling Degree Days 16 17  
Month to date cooling degree days 75 85  
Year to date cooling degree days 984 1018  
Since 1 June cooling degree days 548 534  
Growing Degree Days 30 (Base 50)    
Moisture  
Dew Point 72 °F    
Average Humidity 78    
Maximum Humidity 100    
Minimum Humidity 56    
Precipitation  
Precipitation 0.00 in 0.21 in 1.85 in (1897)
Month to date precipitation 1.82 1.06  
Year to date precipitation 23.58 23.07  
Snow  
Snow 0.00 in 0.00 in 0.00 in (2002)
Month to date snowfall 0.0 0.0  
Since 1 June snowfall 0.0 0.0  
Since 1 July snowfall 0.0 0.0  
Snow Depth 0.00 in    
Sea Level Pressure  
Sea Level Pressure 30.15 in    
Wind  
Wind Speed 10 mph (ESE)    
Max Wind Speed 25 mph    
Max Gust Speed 31 mph    
Visibility 8 miles    
Events      
T = Trace of Precipitation, MM = Missing Value Source: NWS Daily Summary

Daily Weather History Graph

Daily Weather History Graph

Search for Another Location

Airport:

Trip Planner

Search our weather history database for the weather conditions in past years. The results will help you decide how hot, cold, wet, or windy it might be!

Date:

Astronomy

Jul. 05, 2013 Rise Set
Actual Time 6:29 AM EDT 8:32 PM EDT
Civil Twilight 6:02 AM EDT 9:00 PM EDT
Nautical Twilight 5:29 AM EDT 9:33 PM EDT
Astronomical Twilight 4:53 AM EDT 10:09 PM EDT
Moon 4:24 AM EDT (7/5) 6:30 PM EDT (7/5)
Length of Visible Light 14h 57m
Length of Day
14h 02m
Waning Crescent, 6% of the Moon is Illuminated
Jul 5
Waning Crescent
Jul 8
New
Jul 15
First Quarter
Jul 22
Full
Jul 29
Last Quarter

Hourly Weather History & Observations

Time (EDT) Temp. Heat Index Dew Point Humidity Pressure Visibility Wind Dir Wind Speed Gust Speed Precip Events Conditions
12:56 AM 72.0 °F - 71.1 °F 97% 30.18 in 4.0 mi Calm Calm - N/A   Mostly Cloudy
1:56 AM 73.0 °F - 71.1 °F 93% 30.17 in 4.0 mi Calm Calm - N/A   Mostly Cloudy
2:56 AM 72.0 °F - 71.1 °F 97% 30.14 in 4.0 mi NE 3.5 mph - N/A   Mostly Cloudy
3:56 AM 72.0 °F - 71.1 °F 97% 30.14 in 4.0 mi Calm Calm - N/A   Mostly Cloudy
4:56 AM 72.0 °F - 70.0 °F 93% 30.15 in 4.0 mi Calm Calm - N/A   Mostly Cloudy
5:56 AM 71.1 °F - 70.0 °F 96% 30.15 in 4.0 mi NNE 3.5 mph - N/A   Mostly Cloudy
6:56 AM 72.0 °F - 71.1 °F 97% 30.15 in 4.0 mi ENE 3.5 mph - N/A   Mostly Cloudy
7:56 AM 75.0 °F - 72.0 °F 90% 30.17 in 10.0 mi ESE 6.9 mph - N/A   Mostly Cloudy
8:56 AM 80.1 °F 85.1 °F 75.0 °F 85% 30.17 in 10.0 mi ESE 4.6 mph - N/A   Mostly Cloudy
9:56 AM 82.9 °F 90.8 °F 75.9 °F 79% 30.18 in 10.0 mi SSE 10.4 mph - N/A   Mostly Cloudy
10:56 AM 84.9 °F 91.4 °F 73.0 °F 67% 30.18 in 10.0 mi SE 13.8 mph - N/A   Scattered Clouds
11:56 AM 87.1 °F 95.4 °F 73.9 °F 65% 30.18 in 10.0 mi ESE 15.0 mph - N/A   Scattered Clouds
12:56 PM 87.1 °F 94.5 °F 73.0 °F 63% 30.17 in 10.0 mi SE 15.0 mph 21.9 mph N/A   Scattered Clouds
1:56 PM 88.0 °F 96.5 °F 73.9 °F 63% 30.16 in 10.0 mi ESE 16.1 mph 23.0 mph N/A   Mostly Cloudy
2:56 PM 88.0 °F 95.6 °F 73.0 °F 61% 30.14 in 10.0 mi SSE 21.9 mph 26.5 mph N/A   Mostly Cloudy
3:56 PM 89.1 °F 96.0 °F 72.0 °F 57% 30.12 in 10.0 mi SE 21.9 mph 28.8 mph N/A   Scattered Clouds
4:56 PM 88.0 °F 94.7 °F 72.0 °F 59% 30.12 in 10.0 mi ESE 17.3 mph 26.5 mph N/A   Mostly Cloudy
5:56 PM 86.0 °F 92.2 °F 72.0 °F 63% 30.13 in 10.0 mi SE 15.0 mph - N/A   Mostly Cloudy
6:56 PM 84.0 °F 89.6 °F 72.0 °F 67% 30.13 in 10.0 mi SE 13.8 mph 19.6 mph N/A   Mostly Cloudy
7:56 PM 82.0 °F 86.7 °F 72.0 °F 71% 30.14 in 10.0 mi SE 11.5 mph - N/A   Mostly Cloudy
8:56 PM 80.1 °F 84.2 °F 73.0 °F 79% 30.14 in 10.0 mi SE 10.4 mph - N/A   Overcast
9:56 PM 79.0 °F - 72.0 °F 79% 30.16 in 10.0 mi SE 11.5 mph - N/A   Mostly Cloudy
10:56 PM 79.0 °F - 73.0 °F 82% 30.16 in 10.0 mi SE 8.1 mph - N/A   Mostly Cloudy
11:56 PM 78.1 °F - 73.0 °F 84% 30.16 in 10.0 mi SE 8.1 mph - N/A   Mostly Cloudy